{"data":{"norad_id":54088,"epoch":"2026-05-25T00:07:40.099872Z","epoch_age_seconds":71626,"freshness":"FRESH","line1":"1 54088U 22136AP  26145.00532523 -.00000823  00000+0 -33614-4 0  9992","line2":"2 54088  53.2148 351.6284 0001568  91.3731 268.7441 15.08833667198505","mean_motion":15.08833667,"eccentricity":0.0001568,"inclination_deg":53.2148,"raan_deg":351.6284,"arg_perigee_deg":91.3731,"mean_anomaly_deg":268.7441,"bstar":-3.3614e-5,"rev_number":19850,"period_min":95.437955256071,"perigee_km":538.67801979901,"apogee_km":540.8474731595,"semimajor_km":6917.8997464793,"source":"CELESTRAK","updated_at":"2026-05-25T13:38:17.654760Z"}}